www.pogodaiklimat.ru

Погода и климат >> Архив погоды >> Мексика >> Мерида


АРХИВ ПОГОДЫ в Мериде

Время (UTC), дата Ветер
(напр.,м/с)
 
Видим.   Явления Облачность Т
(С)
Тd
(С)
f
(%)
Тe
(С)
Тes
(С)
Комфортность P
(гПа)
Po
(гПа)
Тmin
(С)
Tmax
(С)
R
(мм)
R24
(мм)
S
(см)
09 18.05 ЮВ 2 5000 м 3/0
[Ci fib]
+25.0 +23.0 89 +33 +33 очень
душно
1010.0 1008.8
12 18.05 ЮВ 2 10 км 5/0
[Cs]
+24.8 +23.6 93 +34 +34 очень
душно
1010.6 1009.4 +24.5 +37.5
15 18.05 ЮВ 3 10 км 6/6 600 м
[Cu hum]
+31.3 +26.2 74 +47 +51 опасность
перегрева
1011.0 1009.8
18 18.05 ЮВ 3 10 км 8/6 600 м
[Cu hum Ci fib]
+35.2 +25.4 57 +50 +56 опасность
перегрева
1009.6 1008.4 +24.5 +35.6
21 18.05 В 3 10 км 6/6 600 м
[Cu hum]
+37.2 +28.5 61 +59 +63 опасность
перегрева
1006.9 1005.6
00 19.05 СВ 4 10 км 3/3 600 м
[Cu med, cong]
+33.6 +23.8 57 +45 +45 опасность
перегрева
1006.4 1005.2 +24.5 +38.3
03 19.05 ЮВ 4 5000 м ясно +29.9 +21.5 61 +38 +38 очень
душно
1008.9 1007.7
09 19.05 ЮВ 3 5000 м 1/1 600 м
[Cu hum]
+26.4 +24.3 88 +37 +37 очень
душно
1009.8 1008.5
12 19.05 В 2 10 км 1/1 600 м
[Cu hum]
+25.7 +23.8 89 +35 +35 очень
душно
1010.3 1009.0 +25.4 +38.3
15 19.05 ЮВ 4 10 км 6/6 600 м
[Cu hum]
+29.9 +25.6 78 +44 +48 опасность
перегрева
1011.1 1009.8
18 19.05 ЮВ 4 10 км 1/1 600 м
[Cu hum]
+35.9 +24.4 52 +48 +62 опасность
перегрева
1009.9 1008.6 +25.3 +36.2
00 20.05 СВ 4 5000 м 6/6 600 м
[Cu hum]
+34.0 +22.2 50 +43 +43 опасность
перегрева
1007.5 1006.2 +25.3 +38.2
03 20.05 ЮВ 6 5000 м ясно +31.5 +20.3 51 +38 +38 очень
душно
1010.7 1009.5
09 20.05 ЮВ 3 н/о ясно +25.8 +24.4 92 +36 +36 очень
душно
1011.4 1010.2
12 20.05 В 3 10 км 1/1 600 м
[Cu med, cong]
+25.1 +23.5 91 +34 +34 очень
душно
1012.9 1011.6 +25.0 +38.2
15 20.05 В 3 10 км 5/5 600 м
[Cu hum]
+30.4 +23.8 68 +42 +47 опасность
перегрева
1013.4 1012.1
18 20.05 В 6 10 км 4/3 600 м
[Cu hum Ci fib]
+35.4 +24.5 53 +48 +54 опасность
перегрева
1011.6 1010.4 +25.0 +35.7
21 20.05 ЮВ 4 10 км 5/4 600 м
[Cu hum Ci fib]
+38.9 +26.9 51 +56 +61 опасность
перегрева
1008.3 1007.1
00 21.05 ЮВ 2 10 км 5/5 600 м
[Cu hum]
+35.4 +23.8 51 +47 +47 опасность
перегрева
1007.8 1006.6 +25.0 +39.4
03 21.05 ЮВ 4 5000 м ясно +31.7 +22.6 59 +41 +41 опасность
перегрева
1010.0 1009.0
12 21.05 ЮВ 3 10 км 1/1 600 м
[Cu hum]
+24.8 +23.7 94 +34 +34 очень
душно
1010.1 1008.8 +24.8 +39.4
15 21.05 В 4 10 км 5/5 600 м
[Cu hum]
+30.6 +24.5 70 +43 +47 опасность
перегрева
1010.5 1009.3
18 21.05 В 5 10 км 4/4 600 м
[Cu hum]
+36.2 +25.4 54 +50 +57 опасность
перегрева
1008.4 1007.1 +24.8 +36.5
21 21.05 ЮВ 4 10 км 4/4 600 м
[Cu hum]
+38.2 +25.4 48 +52 +57 опасность
перегрева
1005.9 1004.6
00 22.05 ЮВ 3 5000 м 3/3 600 м
[Cu hum]
+36.4 +22.7 45 +46 +46 опасность
перегрева
1005.8 1004.5 +24.8 +38.7
03 22.05 ЮВ 5 5000 м ясно +31.2 +19.2 49 +37 +37 очень
душно
1009.0 1007.8
09 22.05 ЮВ 3 5000 м ясно +26.6 +24.5 88 +37 +37 очень
душно
1009.6 1008.3
12 22.05 ЮВ 3 10 км ясно +26.0 +24.3 90 +36 +36 очень
душно
1010.2 1009.0 +25.8 +38.7
15 22.05 В 5 10 км 4/4 600 м
[Cu hum]
+31.5 +24.1 65 +43 +47 опасность
перегрева
1010.8 1009.6
18 22.05 В 6 10 км 6/6 600 м
[Cu hum]
+35.2 +24.7 55 +48 +52 опасность
перегрева
1010.4 1009.2 +25.8 +35.2
21 22.05 ЮВ 4 10 км 6/6 600 м
[Cu hum]
+38.7 +24.4 44 +50 +54 опасность
перегрева
1008.2 1006.9
00 23.05 ЮВ 6 10 км 4/4 600 м
[Cu hum]
+35.8 +23.3 49 +46 +46 опасность
перегрева
1008.1 1006.8 +25.8 +39.3
03 23.05 ЮВ 6 5000 м ясно +31.2 +23.5 64 +42 +42 опасность
перегрева
1012.1 1010.8
12 23.05 ЮВ 4 10 км 1/1 600 м
[Cu hum]
+25.7 +24.1 91 +36 +36 очень
душно
1013.3 1012.1 +25.7 +39.3
15 23.05 В 4 10 км 4/4 600 м
[Cu hum]
+31.2 +24.1 66 +43 +48 опасность
перегрева
1014.2 1012.9
18 23.05 В 5 10 км 6/6 600 м
[Cu hum]
+35.3 +23.7 51 +46 +51 опасность
перегрева
1013.0 1011.7 +25.6 +36.1
21 23.05 ЮВ 4 10 км 6/6 600 м
[Cu hum]
+37.3 +22.6 43 +46 +50 опасность
перегрева
1010.5 1009.3
03 24.05 В 3 5000 м 3/0 2000 м
[Ac trans]
+29.7 +23.1 68 +40 +40 очень
душно
1012.9 1011.6
09 24.05 В 3 5000 м 1/1 600 м
[Cu hum]
+26.8 +23.5 82 +36 +36 очень
душно
1013.5 1012.2
12 24.05 В 2 10 км ясно +25.8 +24.1 90 +36 +36 очень
душно
1014.2 1012.5 +25.6 +38.4
15 24.05 В 5 10 км 3/3 600 м
[Cu hum]
+31.0 +22.9 62 +41 +46 опасность
перегрева
1014.7 1013.5
18 24.05 В 3 10 км 4/4 600 м
[Cu hum]
+35.2 +24.9 55 +48 +59 опасность
перегрева
1013.6 1012.3 +25.6 +35.6
21 24.05 С 4 10 км 6/6 600 м
[Cu hum]
+36.0 +23.9 50 +47 +51 опасность
перегрева
1010.9 1009.6
00 25.05 СВ 6 10 км 6/3 600 м
[Cu hum Ac trans Ci fib]
+31.6 +21.6 55 +40 +40 очень
душно
1011.3 1010.0 +25.6 +37.6
03 25.05 СВ 4 5000 м 3/0 2000 м
[Ac trans]
+29.0 +22.3 67 +38 +38 очень
душно
1013.5 1012.2

 

Местоположение метеостанции Мерида (Мексика): широта 20.98 долгота -89.65 высота над уровнем моря 9 м.

В архиве по умолчанию представлена погода в Мериде за последнюю неделю. Архивные данные за месяц целиком и за предыдущие месяцы, начиная с января 2011 года, Вы можете получить, выбрав интересующий диапазон дат из раскрывающегося списка и нажав кнопку "Ввод!".


*Определитесь, кто Вы:
робот инопланетянин человек

Внимание! Время в таблицах - всемирное. Для получения местного времени необходимо прибавить поправку, которая равна -6 ч.

Смотрите также архив погоды в соседних городах и на ближайших метеорологических станциях:

Погода в Мериде 2 (Мексика) (6 км)
Погода в Прогресо (Мексика) (36 км)
Погода в Вальядолиде (Мексика) (154 км)
Погода в Кампече (Мексика) (157 км)
Погода в Фелипе-Каррильо-Пуэрто (Мексика) (231 км)
Погода в Четумале (Мексика) (312 км)
Погода в Белизе (Белиз) (409 км)
Погода во Флоресе (Гватемала) (452 км)
Погода в Вильяэрмосе (Мексика) (479 км)
Погода в Кабо-Сан-Антонио (Куба) (497 км)

Пояснения к столбцам:

Ветер - указаны скорость ветра в м/с - средняя за 10 мин, порывы в срок и между сроками (в фигурных скобках) и направление, откуда дует ветер: С - северный, СВ - северо-восточный, В - восточный, ЮВ - юго-восточный, Ю - южный, ЮЗ - юго-западный, З - западный, СЗ - северо-западный.
Видимость - горизонтальная дальность видимости в метрах или километрах. При видимости от 1 до 10 км при отсутствии осадков обычно наблюдается дымка, при ухудшении видимости до 1 км и менее - туман. В сухую погоду видимость может ухудшаться дымом, пылью или мглою.
Явления - указаны атмосферные явления, наблюдавшиеся в срок или в последний час перед сроком; фигурными скобками обозначены явления, наблюдавшиеся между сроками (за 1-3 часа до срока); квадратными скобками обозначены град или гололедные отложения с указанием их диаметра в мм.
Облачность - указаны через наклонную черту общая и нижняя облачность в баллах и высота нижней границы облаков в метрах; квадратными скобками обозначены формы облаков: Ci - перистые, Cs - перисто-слоистые, Cc - перисто-кучевые, Ac - высококучевые, As - высокослоистые, Sc - слоисто-кучевые, Ns - слоисто-дождевые, Cu - кучевые, Cb - кучево-дождевые. Подробнее классификацию облаков см. в Атласе облаков (PDF).
T - Температура воздуха - температура, измеренная на высоте 2 м над землей.
Td - Температура точки росы - температура, при понижении до которой содержащийся в воздухе водяной пар достигнет насыщения.
f - Относительная влажность воздуха - влажноcть воздуха, измеренная на высоте 2 м над землей.
Te - Эффективная температура - температура, которую ощущает одетый по сезону человек в тени. Характеристика душности погоды. При расчете учитывается влияние влажности воздуха и скорости ветра на теплоощущения человека.
Tes - Эффективная температура на солнце - температура, которую ощущает человек, с поправкой на солнечный нагрев. Характеристика знойности погоды. Зависит от высоты солнца над горизонтом, облачности и скорости ветра. Ночью, в пасмурную погоду, а также при ветре 12 м/с и более поправка равна нулю.
P - Атмосферное давление - приведенное к уровню моря атмосферное давление.
Po - Атмосферное давление - измеренное на уровне метеостанции атмосферное давление.
Tmin - Минимальная температура - минимум температуры воздуха на высоте 2 м над землей.
Tmax - Максимальная температура - максимум температуры воздуха на высоте 2 м над землей.
R - Количество осадков - Количество выпавших осадков за период времени, мм. При наведении курсора мыши на число - период времени, за который выпало указанное количество осадков.
R24 - Количество осадков - Количество выпавших осадков за 24 часа, мм.
S - Снежный покров - Высота снежного покрова, см. При наведении курсора мыши на число - состояние снежного покрова и степень покрытия местности в баллах.